Regional Weather Roundup
Issued by NWS

Home | Current Version | Previous Version | Text Only | Print | Product List | Glossary Off
Versions: 1 2 3 4 5 6 7 8 9 10 11 12 13 14 15 16 17 18 19 20 21 22 23 24 25 26 27 28 29 30 31 32 33 34 35 36 37 38 39 40 41 42 43 44 45 46 47 48 49 50

000
ASUS43 KFSD 241802
RWRSD

WEATHER ROUNDUP FOR SOUTH DAKOTA
NATIONAL WEATHER SERVICE SIOUX FALLS SD
100 PM CDT WED AUG 24 2016

NOTE: "FAIR" INDICATES FEW OR NO CLOUDS BELOW 12,000 FEET WITH NO
SIGNIFICANT WEATHER AND/OR OBSTRUCTIONS TO VISIBILITY.


SDZ001>005-009-010-012>017-241900-
NORTHWEST AND NORTH CENTRAL SOUTH DAKOTA

CITY           SKY/WX    TMP DP  RH WIND       PRES   REMARKS
BUFFALO          N/A     68  46  45 W23G35    30.10F
MOBRIDGE       CLOUDY    76  49  38 NW17G26   30.04F
$$

SDZ012>016-024>037-041>051-057-063-072>074-241900-
SOUTHWEST AND SOUTH CENTRAL SOUTH DAKOTA

CITY           SKY/WX    TMP DP  RH WIND       PRES   REMARKS
RAPID CTY ARPT MOSUNNY   72  46  39 N8        30.19F
PIERRE         CLOUDY    70  49  47 NW14      30.10S
CUSTER         SUNNY     66  33  29 W9        30.27F
ELLSWORTH AFB  PTSUNNY   70  45  40 N12       30.18S
PHILIP         CLOUDY    71  50  47 W10       30.16S
PINE RIDGE     CLOUDY    68  48  48 NE3       30.21F
WINNER         MOCLDY    68  50  52 NW15      30.13F
$$

SDZ004>011-016>023-039-040-241900-
NORTHEAST SOUTH DAKOTA

CITY           SKY/WX    TMP DP  RH WIND       PRES   REMARKS
ABERDEEN       CLOUDY    73  52  47 W16G24    30.02S
WATERTOWN      PTSUNNY   73  54  51 W13       30.04R
BROOKINGS      CLOUDY    70  56  61 W10       30.04S
SISSETON         N/A     73  53  49 NW16G23   29.97R
$$

SDZ017-020-022-023-036>040-048>070-241900-
SOUTHEAST SOUTH DAKOTA

CITY           SKY/WX    TMP DP  RH WIND       PRES   REMARKS
SIOUX FALLS    CLOUDY    74  58  57 NW10      30.06R
HURON          PTSUNNY   74  50  42 W13       30.06R
CHAMBERLAIN    CLOUDY    73  53  48 W9        30.12F
MITCHELL       CLOUDY    70  57  63 NW8       30.09R
YANKTON        CLOUDY    72  52  49 W12       30.06R
$$

ABBREVIATIONS USED IN REMARKS
   TC - TEMPERATURE IN CELSIUS
  WCI - WIND CHILL INDEX
   HX - HEAT INDEX
  VSB - VISIBILITY





USA.gov is the U.S. government's official web portal to all federal, state and local government web resources and services.